This is the latest recevied weather packets stored in our database for station/object EA1CUE-WX. If no packets are shown the sender has not sent any weather packets the latest 10 day(s).
| Time | Temp. | Humidity | Pressure | Rain* | Wind** | Luminosity | Snow |
|---|---|---|---|---|---|---|---|
| 1787758729 | 17.78° C | 1% | 1008.4 hPa | 0 mm | - | - | - |
| 1787758430 | 17.78° C | 1% | 1008.3 hPa | 0 mm | - | - | - |
| 1787758130 | 17.78° C | 1% | 1008.3 hPa | 0 mm | - | - | - |
| 1787757830 | 17.22° C | 1% | 1008 hPa | 0 mm | - | - | - |
| 1787757530 | 16.67° C | 1% | 1008.1 hPa | 0 mm | - | - | - |
| 1787757230 | 16.67° C | 1% | 1008.2 hPa | 0 mm | - | - | - |
| 1787756929 | 16.11° C | 1% | 1008.3 hPa | 0 mm | - | - | - |
| 1787756630 | 15.56° C | 1% | 1008.4 hPa | 0 mm | - | - | - |
| 1787756329 | 15° C | 1% | 1008.3 hPa | 0 mm | - | - | - |
| 1787756030 | 15° C | 1% | 1008.2 hPa | 0 mm | - | - | - |
| 1787755729 | 15.56° C | 1% | 1008.1 hPa | 0 mm | - | - | - |
| 1787755430 | 15° C | 1% | 1007.9 hPa | 0 mm | - | - | - |
| 1787755129 | 14.44° C | 1% | 1008 hPa | 0 mm | - | - | - |
| 1787754830 | 14.44° C | 1% | 1008 hPa | 0 mm | - | - | - |
| 1787754530 | 13.89° C | 1% | 1008 hPa | 0 mm | - | - | - |
| 1787754230 | 13.33° C | 1% | 1008 hPa | 0 mm | - | - | - |
| 1787753930 | 12.78° C | 1% | 1007.7 hPa | 0 mm | - | - | - |
| 1787753630 | 12.22° C | 1% | 1007.6 hPa | 0 mm | - | - | - |
| 1787753330 | 12.78° C | 1% | 1008 hPa | 0 mm | - | - | - |
| 1787753030 | 12.78° C | 1% | 1008 hPa | 0 mm | - | - | - |
| 1787752729 | 12.22° C | 1% | 1008.1 hPa | 0 mm | - | - | - |
| 1787752429 | 12.22° C | 1% | 1008.2 hPa | 0 mm | - | - | - |
| 1787752130 | 12.22° C | 1% | 1008.3 hPa | 0 mm | - | - | - |
| 1787751829 | 12.22° C | 1% | 1008.5 hPa | 0 mm | - | - | - |
| 1787751529 | 12.22° C | 1% | 1008.6 hPa | 0 mm | - | - | - |
* Rain latest hour (hover to see other rain measurements)
** Current wind speed in m/s (hover to see current wind gust speed)